NUSTAR (38358 NORAD) Tracking and Keplerian Element Data

This shows tracking and keplerian element data for the satellite.

Feedback or suggestion? Click here.




ElementValue
Catalog38358
NameNUSTAR
Epoch Orbit35421
Epoch Day351.26857282
Epoch Year2018
RAAN290.3655
Inclination6.0272
Eccentricity0.0012391
Argument of Perigee269.7391
Mean Anonmoly90.1318
Mean Motion14.88078581
Decay Rate8.97E-06
L11 38358U 12031A 18351.26857282 .00000897 00000-0 20073-4 0 9992
L22 38358 6.0272 290.3655 0012391 269.7391 90.1318 14.88078581354216

Live tracking and technical data element details for NUSTAR (NORAD 38358). NUSTAR can be tracked NOW for your location showing map with azimuth and elevation plus other details from your city location.

Track the satellite on the map from your city or location and see movement details for azimuth, elevation, latitude, longitude, range, height, and movement on the map or in text.







IsCatalogInMostPopularTable: catalog: 38358, numindb: 58
Update: records affected: 1



GetName: 38358 NUSTAR

Hit Count: updated at: Tue, 18 Dec 2018 21:16:55 GMT